FW8363 Weather Reports


Display with metric or nautical units.
time (UTC)temp
F
wind
direction
speed
MPH
gust
MPH
rain 1hr
in
rain 24hr
in
rain mn
in
humidity
%
barometer
mb
20260905152110 88 169 7.0 11.0 0.00 0.00 0.00 72 1016.2
20260905145641 89 176 8.0 12.0 0.00 0.02 0.00 73 1016.4
20260905143047 88 116 5.0 11.0 0.00 0.02 0.00 73 1016.4
20260905134555 88 132 6.0 11.0 0.00 0.07 0.00 74 1016.1
20260905132043 87 134 8.0 13.0 0.00 0.07 0.00 72 1016.1
20260905125532 87 163 8.0 12.0 0.00 0.07 0.00 75 1016.2
20260905124655 86 140 8.0 13.0 0.00 0.07 0.00 76 1016.0
20260905122100 86 112 8.0 13.0 0.00 0.07 0.00 78 1015.8
20260905114007 86 129 6.0 11.0 0.00 0.07 0.00 77 1015.5
20260905113133 86 127 5.0 11.0 0.00 0.07 0.00 78 1015.4
20260905104539 85 132 3.0 7.0 0.00 0.07 0.00 77 1015.3
20260905103701 85 126 3.0 8.0 0.00 0.07 0.00 77 1015.1
20260905101108 85 123 4.0 8.0 0.00 0.07 0.00 76 1015.1
20260905094506 86 107 6.0 10.0 0.00 0.07 0.00 77 1014.9
20260905093628 85 99 4.0 7.0 0.00 0.07 0.00 75 1014.9
20260905091033 85 120 6.0 9.0 0.00 0.07 0.00 77 1014.7
20260905083614 85 132 3.0 10.0 0.00 0.07 0.00 79 1014.8
20260905081026 85 144 6.0 10.0 0.00 0.07 0.00 78 1014.9
20260905073608 85 120 4.0 9.0 0.00 0.07 0.00 79 1015.1
20260905071016 86 105 4.0 7.0 0.00 0.07 0.00 78 1015.0
20260905064515 86 126 3.0 9.0 0.00 0.07 0.00 78 1015.0
20260905063638 86 113 4.0 8.0 0.00 0.07 0.00 78 1015.2
20260905061043 86 124 3.0 8.0 0.00 0.07 0.00 77 1015.6
20260905054523 86 115 5.0 9.0 0.00 0.07 0.00 77 1016.0
20260905053648 86 111 5.0 11.0 0.00 0.07 0.00 77 1016.0
20260905051049 86 101 8.0 11.0 0.00 0.07 0.00 77 1016.5
20260905043545 85 103 7.0 9.0 0.00 0.07 0.00 80 1016.4
20260905041021 85 90 4.0 13.0 0.00 0.07 0.00 80 1016.3
20260905033559 86 74 5.0 10.0 0.00 0.07 0.07 78 1016.6
20260905031055 86 100 5.0 11.0 0.00 0.07 0.07 80 1016.8
20260905024517 86 101 7.0 11.0 0.00 0.07 0.07 80 1016.8
20260905023639 86 110 6.0 9.0 0.00 0.07 0.07 79 1017.0
20260905021045 86 97 4.0 9.0 0.00 0.07 0.07 78 1016.9
20260905014525 86 99 4.0 7.0 0.00 0.07 0.07 78 1016.7
20260905013648 86 73 5.0 9.0 0.00 0.07 0.07 78 1016.6
20260905011053 86 102 6.0 9.0 0.00 0.07 0.07 76 1016.3
20260905003611 86 105 5.0 8.0 0.00 0.07 0.07 76 1015.7
20260905001019 86 79 6.0 9.0 0.00 0.07 0.07 76 1015.4
20260904235525 86 97 5.0 10.0 0.00 0.07 0.07 77 1015.4
20260904234647 86 101 5.0 10.0 0.00 0.07 0.07 77 1015.3
20260904232053 86 107 6.0 10.0 0.00 0.07 0.07 77 1015.3
20260904223601 87 65 6.0 10.0 0.00 0.07 0.07 75 1015.2
20260904221006 87 80 6.0 10.0 0.00 0.07 0.07 74 1015.1
20260904220116 87 83 4.0 9.0 0.00 0.07 0.07 74 1015.2
20260904213559 87 65 6.0 11.0 0.00 0.07 0.07 75 1015.5
20260904211021 87 64 7.0 13.0 0.00 0.07 0.07 75 1015.8
20260904203613 87 57 8.0 12.0 0.00 0.07 0.07 74 1015.9
20260904201017 88 3 2.0 6.0 0.00 0.07 0.07 71 1016.4
20260904194559 87 345 7.0 10.0 0.00 0.07 0.07 68 1016.4
20260904191110 87 308 8.0 10.0 0.00 0.07 0.07 70 1016.5
20260904184527 86 292 7.0 11.0 0.00 0.07 0.07 72 1016.6
20260904183645 86 303 10.0 14.0 0.00 0.07 0.07 73 1017.0
20260904181050 89 122 5.0 9.0 0.00 0.07 0.07 68 1017.1
20260904174523 89 154 5.0 10.0 0.00 0.07 0.07 70 1016.8
20260904173646 89 126 6.0 10.0 0.00 0.07 0.07 70 1016.9
20260904171051 89 165 4.0 12.0 0.00 0.07 0.07 70 1017.1
20260904165002 89 90 3.0 9.0 0.00 0.07 0.07 72 1017.3
20260904164123 90 118 2.0 7.0 0.00 0.07 0.07 71 1017.6
20260904155654 89 190 2.0 8.0 0.00 0.07 0.07 73 1017.8